Time,TemperatureF,DewpointF,PressureIn,WindDirection,WindDirectionDegrees,WindSpeedMPH,WindSpeedGustMPH,Humidity,HourlyPrecipIn,Conditions,Clouds,dailyrainin,SoftwareType,DateUTC
2013-04-15 00:00:00,38.9,34.2,30.70,ESE,117,2.3,2.3,83,0.00,OVC,FEW,0.00,WeatherDisplay:10.37,2013-04-15 04:00:00,
2013-04-15 00:01:00,38.8,34.1,30.71,East,90,2.3,2.3,83,0.00,OVC,FEW,0.00,WeatherDisplay:10.37,2013-04-15 04:01:00,
2013-04-15 00:02:00,38.8,34.1,30.70,SE,130,2.3,2.3,83,0.00,OVC,FEW,0.00,WeatherDisplay:10.37,2013-04-15 04:02:00,
2013-04-15 00:04:00,38.8,34.1,30.70,East,97,4.6,4.6,83,0.00,OVC,FEW,0.00,WeatherDisplay:10.37,2013-04-15 04:04:00,
2013-04-15 00:09:00,38.8,34.1,30.70,ENE,70,2.3,2.3,83,0.00,OVC,FEW,0.00,WeatherDisplay:10.37,2013-04-15 04:09:00,
2013-04-15 00:14:00,38.6,34.2,30.69,ESE,110,3.5,3.5,84,0.00,OVC,FEW,0.00,WeatherDisplay:10.37,2013-04-15 04:14:00,
2013-04-15 00:19:00,38.5,34.1,30.69,East,91,2.0,2.0,84,0.00,OVC,FEW,0.00,WeatherDisplay:10.37,2013-04-15 04:19:00,
2013-04-15 00:24:00,38.4,34.3,30.69,East,98,2.3,2.3,85,0.00,OVC,FEW,0.00,WeatherDisplay:10.37,2013-04-15 04:24:00,
2013-04-15 00:29:00,38.3,34.2,30.68,East,101,2.3,2.3,85,0.00,OVC,FEW,0.00,WeatherDisplay:10.37,2013-04-15 04:29:00,
2013-04-15 00:34:00,38.3,34.2,30.68,ESE,118,2.3,2.3,85,0.00,OVC,FEW,0.00,WeatherDisplay:10.37,2013-04-15 04:34:00,
2013-04-15 00:39:00,38.2,34.1,30.68,SE,127,1.2,1.2,85,0.00,OVC,FEW,0.00,WeatherDisplay:10.37,2013-04-15 04:39:00,
2013-04-15 00:44:00,38.1,34.0,30.68,ESE,113,1.2,1.2,85,0.00,OVC,FEW,0.00,WeatherDisplay:10.37,2013-04-15 04:44:00,
2013-04-15 00:49:00,38.1,34.3,30.68,ESE,115,2.3,2.3,86,0.00,OVC,FEW,0.00,WeatherDisplay:10.37,2013-04-15 04:49:00,
2013-04-15 00:54:00,38.1,34.3,30.68,ESE,115,2.3,2.3,86,0.00,OVC,FEW,0.00,WeatherDisplay:10.37,2013-04-15 04:54:00,
2013-04-15 00:59:00,38.0,34.2,30.68,ESE,119,2.3,2.3,86,0.00,OVC,FEW,0.00,WeatherDisplay:10.37,2013-04-15 04:59:00,
2013-04-15 01:04:00,38.0,34.2,30.68,SE,127,3.0,3.0,86,0.00,OVC,FEW,0.00,WeatherDisplay:10.37,2013-04-15 05:04:00,
2013-04-15 01:09:00,37.9,34.1,30.68,ESE,112,1.2,1.2,86,0.00,OVC,FEW,0.00,WeatherDisplay:10.37,2013-04-15 05:09:00,
2013-04-15 01:14:00,38.0,34.2,30.68,ENE,75,1.2,1.2,86,0.00,OVC,FEW,0.00,WeatherDisplay:10.37,2013-04-15 05:14:00,
2013-04-15 01:19:00,37.9,34.1,30.68,ESE,116,1.2,1.2,86,0.00,OVC,FEW,0.00,WeatherDisplay:10.37,2013-04-15 05:19:00,
2013-04-15 01:24:00,37.8,34.0,30.68,SE,136,1.2,1.2,86,0.00,OVC,FEW,0.00,WeatherDisplay:10.37,2013-04-15 05:24:00,
2013-04-15 01:29:00,37.7,34.2,30.68,ENE,71,2.3,2.3,87,0.00,OVC,FEW,0.00,WeatherDisplay:10.37,2013-04-15 05:29:00,
2013-04-15 01:34:00,37.7,34.2,30.68,East,82,1.2,1.2,87,0.00,OVC,FEW,0.00,WeatherDisplay:10.37,2013-04-15 05:34:00,
2013-04-15 01:39:00,37.6,34.1,30.68,ESE,113,1.2,1.2,87,0.00,OVC,FEW,0.00,WeatherDisplay:10.37,2013-04-15 05:39:00,
2013-04-15 01:44:00,37.6,34.1,30.67,ENE,68,2.3,2.3,87,0.00,OVC,FEW,0.00,WeatherDisplay:10.37,2013-04-15 05:44:00,
2013-04-15 01:49:00,37.7,34.2,30.67,East,91,1.2,1.2,87,0.00,OVC,FEW,0.00,WeatherDisplay:10.37,2013-04-15 05:49:00,
2013-04-15 01:54:00,37.7,34.2,30.67,East,82,2.3,2.3,87,0.00,OVC,FEW,0.00,WeatherDisplay:10.37,2013-04-15 05:54:00,
2013-04-15 01:59:00,37.9,34.4,30.67,ESE,110,2.3,2.3,87,0.00,OVC,FEW,0.00,WeatherDisplay:10.37,2013-04-15 05:59:00,
2013-04-15 02:04:00,38.1,34.6,30.67,ESE,117,0.0,0.0,87,0.00,OVC,FEW,0.00,WeatherDisplay:10.37,2013-04-15 06:04:00,
2013-04-15 02:09:00,38.1,34.6,30.67,ENE,68,2.3,2.3,87,0.00,OVC,FEW,0.00,WeatherDisplay:10.37,2013-04-15 06:09:00,
2013-04-15 02:14:00,38.2,34.7,30.67,East,91,3.0,3.0,87,0.00,OVC,FEW,0.00,WeatherDisplay:10.37,2013-04-15 06:14:00,
2013-04-15 02:19:00,38.3,34.8,30.67,ESE,122,3.5,3.5,87,0.00,OVC,FEW,0.00,WeatherDisplay:10.37,2013-04-15 06:19:00,
2013-04-15 02:24:00,38.3,34.8,30.66,East,85,1.2,1.2,87,0.00,OVC,FEW,0.00,WeatherDisplay:10.37,2013-04-15 06:24:00,
2013-04-15 02:29:00,38.3,34.8,30.66,ENE,78,3.5,3.5,87,0.00,OVC,FEW,0.00,WeatherDisplay:10.37,2013-04-15 06:29:00,
2013-04-15 02:34:00,38.5,35.0,30.66,ESE,113,2.3,2.3,87,0.00,OVC,FEW,0.00,WeatherDisplay:10.37,2013-04-15 06:34:00,
2013-04-15 02:39:00,38.7,35.2,30.66,ESE,117,2.3,2.3,87,0.00,OVC,FEW,0.00,WeatherDisplay:10.37,2013-04-15 06:39:00,
2013-04-15 02:44:00,38.8,35.3,30.66,East,84,1.2,1.2,87,0.00,OVC,FEW,0.00,WeatherDisplay:10.37,2013-04-15 06:44:00,
2013-04-15 02:49:00,38.9,35.4,30.66,SE,126,2.3,2.3,87,0.00,OVC,FEW,0.00,WeatherDisplay:10.37,2013-04-15 06:49:00,
2013-04-15 02:54:00,39.0,35.5,30.66,East,94,2.3,2.3,87,0.00,OVC,FEW,0.00,WeatherDisplay:10.37,2013-04-15 06:54:00,
2013-04-15 02:59:00,39.1,35.3,30.66,SE,129,3.5,3.5,86,0.00,OVC,FEW,0.00,WeatherDisplay:10.37,2013-04-15 06:59:00,
2013-04-15 03:04:00,39.3,35.5,30.66,SE,137,2.3,2.3,86,0.00,OVC,FEW,0.00,WeatherDisplay:10.37,2013-04-15 07:04:00,
2013-04-15 03:41:00,39.1,35.3,30.66,East,88,3.5,3.5,86,0.00,OVC,FEW,0.00,WeatherDisplay:10.37,2013-04-15 07:41:00,
2013-04-15 03:42:00,39.1,35.3,30.66,East,98,1.2,1.2,86,0.00,OVC,FEW,0.00,WeatherDisplay:10.37,2013-04-15 07:42:00,
2013-04-15 03:47:00,39.1,35.3,30.66,ESE,115,1.2,1.2,86,0.00,OVC,FEW,0.00,WeatherDisplay:10.37,2013-04-15 07:47:00,
2013-04-15 03:50:00,39.1,35.3,30.66,East,82,2.3,2.3,86,0.00,OVC,FEW,0.00,WeatherDisplay:10.37,2013-04-15 07:50:00,
2013-04-15 03:51:00,39.0,35.2,30.66,ESE,113,3.5,3.5,86,0.00,OVC,FEW,0.00,WeatherDisplay:10.37,2013-04-15 07:51:00,
2013-04-15 03:53:00,39.1,35.3,30.66,SE,124,1.2,1.2,86,0.00,OVC,FEW,0.00,WeatherDisplay:10.37,2013-04-15 07:53:00,
2013-04-15 03:58:00,38.9,35.1,30.66,ESE,106,1.2,1.2,86,0.00,OVC,FEW,0.00,WeatherDisplay:10.37,2013-04-15 07:58:00,
2013-04-15 04:03:00,38.9,35.1,30.66,East,89,0.0,0.0,86,0.00,OVC,FEW,0.00,WeatherDisplay:10.37,2013-04-15 08:03:00,
2013-04-15 04:08:00,38.7,34.9,30.66,East,89,0.0,0.0,86,0.00,OVC,FEW,0.00,WeatherDisplay:10.37,2013-04-15 08:08:00,
2013-04-15 04:14:00,38.6,35.1,30.67,ESE,116,2.3,2.3,87,0.00,OVC,FEW,0.00,WeatherDisplay:10.37,2013-04-15 08:14:00,
2013-04-15 04:19:00,38.7,35.2,30.67,ENE,76,1.2,0.0,87,0.00,OVC,FEW,0.00,WeatherDisplay:10.37,2013-04-15 08:19:00,
2013-04-15 04:24:00,38.5,35.0,30.67,ENE,76,0.0,0.0,87,0.00,OVC,FEW,0.00,WeatherDisplay:10.37,2013-04-15 08:24:00,
2013-04-15 04:29:00,38.5,35.0,30.68,ENE,77,0.0,0.0,87,0.00,OVC,FEW,0.00,WeatherDisplay:10.37,2013-04-15 08:29:00,
2013-04-15 04:34:00,38.5,35.0,30.68,ENE,75,0.0,0.0,87,0.00,OVC,FEW,0.00,WeatherDisplay:10.37,2013-04-15 08:34:00,
2013-04-15 04:40:00,38.2,34.4,30.67,ENE,75,1.2,1.2,86,0.00,OVC,FEW,0.00,WeatherDisplay:10.37,2013-04-15 08:40:00,
2013-04-15 04:43:00,37.7,34.2,30.68,East,91,0.0,0.0,87,0.00,OVC,FEW,0.00,WeatherDisplay:10.37,2013-04-15 08:43:00,
2013-04-15 04:44:00,37.7,34.2,30.68,East,79,0.0,1.0,87,0.00,OVC,FEW,0.00,WeatherDisplay:10.37,2013-04-15 08:44:00,
2013-04-15 04:49:00,37.5,34.0,30.68,East,91,1.2,1.2,87,0.00,OVC,FEW,0.00,WeatherDisplay:10.37,2013-04-15 08:49:00,
2013-04-15 04:54:00,37.3,34.1,30.68,East,91,0.0,0.0,88,0.00,OVC,FEW,0.00,WeatherDisplay:10.37,2013-04-15 08:54:00,
2013-04-15 04:59:00,37.3,34.1,30.68,East,91,0.0,0.0,88,0.00,OVC,FEW,0.00,WeatherDisplay:10.37,2013-04-15 08:59:00,
2013-04-15 05:04:00,37.5,34.6,30.68,East,90,1.2,1.2,89,0.00,OVC,FEW,0.00,WeatherDisplay:10.37,2013-04-15 09:04:00,
2013-04-15 05:09:00,37.5,34.6,30.68,East,91,1.2,0.0,89,0.00,OVC,FEW,0.00,WeatherDisplay:10.37,2013-04-15 09:09:00,
2013-04-15 05:14:00,37.5,34.6,30.68,NE,50,1.2,1.2,89,0.00,OVC,FEW,0.00,WeatherDisplay:10.37,2013-04-15 09:14:00,
2013-04-15 05:19:00,37.5,34.6,30.69,NE,50,0.0,0.0,89,0.00,OVC,FEW,0.00,WeatherDisplay:10.37,2013-04-15 09:19:00,
2013-04-15 05:24:00,37.5,34.6,30.69,NE,50,0.0,0.0,89,0.00,OVC,FEW,0.00,WeatherDisplay:10.37,2013-04-15 09:24:00,
2013-04-15 05:29:00,37.5,34.8,30.70,NE,50,1.2,1.2,90,0.00,OVC,FEW,0.00,WeatherDisplay:10.37,2013-04-15 09:29:00,
2013-04-15 05:34:00,37.4,34.5,30.70,NE,50,0.0,0.0,89,0.00,OVC,FEW,0.00,WeatherDisplay:10.37,2013-04-15 09:34:00,
2013-04-15 05:39:00,37.1,34.2,30.69,NE,50,0.0,0.0,89,0.00,OVC,FEW,0.00,WeatherDisplay:10.37,2013-04-15 09:39:00,
2013-04-15 05:44:00,36.8,33.9,30.70,NE,50,0.0,0.0,89,0.00,OVC,FEW,0.00,WeatherDisplay:10.37,2013-04-15 09:44:00,
2013-04-15 05:49:00,36.8,33.9,30.70,NE,50,0.0,0.0,89,0.00,OVC,FEW,0.00,WeatherDisplay:10.37,2013-04-15 09:49:00,
2013-04-15 05:54:00,36.8,34.1,30.70,NE,50,0.0,0.0,90,0.00,OVC,FEW,0.00,WeatherDisplay:10.37,2013-04-15 09:54:00,
2013-04-15 05:59:00,36.7,34.0,30.70,NE,50,0.0,0.0,90,0.00,OVC,FEW,0.00,WeatherDisplay:10.37,2013-04-15 09:59:00,
2013-04-15 06:04:00,36.6,33.9,30.70,NE,50,0.0,0.0,90,0.00,OVC,FEW,0.00,WeatherDisplay:10.37,2013-04-15 10:04:00,
2013-04-15 06:09:00,36.7,34.0,30.70,NE,50,0.0,0.0,90,0.00,OVC,FEW,0.00,WeatherDisplay:10.37,2013-04-15 10:09:00,
2013-04-15 06:14:00,36.5,33.8,30.70,NE,50,0.0,0.0,90,0.00,OVC,FEW,0.00,WeatherDisplay:10.37,2013-04-15 10:14:00,
2013-04-15 06:19:00,36.4,34.0,30.71,NE,50,0.0,0.0,91,0.00,OVC,FEW,0.00,WeatherDisplay:10.37,2013-04-15 10:19:00,
2013-04-15 06:24:00,36.4,34.0,30.70,NE,50,0.0,0.0,91,0.00,OVC,FEW,0.00,WeatherDisplay:10.37,2013-04-15 10:24:00,
2013-04-15 06:29:00,36.2,33.8,30.70,NE,50,0.0,0.0,91,0.00,OVC,FEW,0.00,WeatherDisplay:10.37,2013-04-15 10:29:00,
2013-04-15 06:34:00,36.0,33.6,30.70,NE,50,0.0,0.0,91,0.00,OVC,FEW,0.00,WeatherDisplay:10.37,2013-04-15 10:34:00,
2013-04-15 06:39:00,35.9,33.5,30.70,NE,50,0.0,0.0,91,0.00,OVC,FEW,0.00,WeatherDisplay:10.37,2013-04-15 10:39:00,
2013-04-15 06:44:00,35.7,33.3,30.71,NE,50,0.0,0.0,91,0.00,OVC,FEW,0.00,WeatherDisplay:10.37,2013-04-15 10:44:00,
2013-04-15 06:49:00,35.5,33.1,30.70,NE,50,0.0,0.0,91,0.00,OVC,FEW,0.00,WeatherDisplay:10.37,2013-04-15 10:49:00,
2013-04-15 06:54:00,35.3,32.9,30.70,NE,50,0.0,0.0,91,0.00,OVC,FEW,0.00,WeatherDisplay:10.37,2013-04-15 10:54:00,
2013-04-15 06:59:00,35.4,33.3,30.70,NE,50,0.0,0.0,92,0.00,OVC,FEW,0.00,WeatherDisplay:10.37,2013-04-15 10:59:00,
2013-04-15 07:04:00,35.3,33.2,30.70,NE,50,0.0,0.0,92,0.00,OVC,FEW,0.00,WeatherDisplay:10.37,2013-04-15 11:04:00,
2013-04-15 07:09:00,35.1,33.0,30.70,NE,50,0.0,0.0,92,0.00,OVC,FEW,0.00,WeatherDisplay:10.37,2013-04-15 11:09:00,
2013-04-15 07:14:00,35.3,33.2,30.70,NE,50,0.0,0.0,92,0.00,OVC,FEW,0.00,WeatherDisplay:10.37,2013-04-15 11:14:00,
2013-04-15 07:19:00,35.7,33.9,30.70,NE,50,0.0,0.0,93,0.00,OVC,FEW,0.00,WeatherDisplay:10.37,2013-04-15 11:19:00,
2013-04-15 07:24:00,36.3,34.5,30.70,NE,50,0.0,0.0,93,0.00,OVC,FEW,0.00,WeatherDisplay:10.37,2013-04-15 11:24:00,
2013-04-15 07:29:00,36.8,35.0,30.70,NE,50,0.0,0.0,93,0.00,OVC,FEW,0.00,WeatherDisplay:10.37,2013-04-15 11:29:00,
2013-04-15 07:34:00,37.5,35.7,30.70,NE,50,0.0,0.0,93,0.00,OVC,FEW,0.00,WeatherDisplay:10.37,2013-04-15 11:34:00,
2013-04-15 07:39:00,38.1,36.0,30.70,NE,50,0.0,0.0,92,0.00,OVC,FEW,0.00,WeatherDisplay:10.37,2013-04-15 11:39:00,
2013-04-15 07:45:00,38.7,36.6,30.70,NE,50,0.0,0.0,92,0.00,OVC,FEW,0.00,WeatherDisplay:10.37,2013-04-15 11:45:00,
2013-04-15 07:50:00,39.9,37.8,30.71,ESE,106,1.2,1.2,92,0.00,OVC,FEW,0.00,WeatherDisplay:10.37,2013-04-15 11:50:00,
2013-04-15 07:55:00,40.7,38.3,30.71,SE,127,1.2,1.2,91,0.00,OVC,FEW,0.00,WeatherDisplay:10.37,2013-04-15 11:55:00,
2013-04-15 08:00:00,41.4,38.7,30.71,ESE,118,1.2,1.2,90,0.00,OVC,FEW,0.00,WeatherDisplay:10.37,2013-04-15 12:00:00,
2013-04-15 08:05:00,42.1,39.1,30.71,SE,129,3.5,3.5,89,0.00,OVC,FEW,0.00,WeatherDisplay:10.37,2013-04-15 12:05:00,
2013-04-15 08:10:00,42.6,39.0,30.71,SE,139,3.5,3.5,87,0.00,OVC,FEW,0.00,WeatherDisplay:10.37,2013-04-15 12:10:00,
2013-04-15 08:15:00,43.1,39.2,30.71,SE,143,3.5,3.5,86,0.00,OVC,FEW,0.00,WeatherDisplay:10.37,2013-04-15 12:15:00,
2013-04-15 08:20:00,43.5,39.0,30.71,ESE,116,3.5,3.5,84,0.00,OVC,FEW,0.00,WeatherDisplay:10.37,2013-04-15 12:20:00,
2013-04-15 08:25:00,43.9,39.4,30.71,SE,131,1.2,1.2,84,0.00,OVC,FEW,0.00,WeatherDisplay:10.37,2013-04-15 12:25:00,
2013-04-15 08:30:00,44.3,39.5,30.71,SE,124,2.3,2.3,83,0.00,OVC,FEW,0.00,WeatherDisplay:10.37,2013-04-15 12:30:00,
2013-04-15 08:35:00,44.8,39.6,30.71,ESE,106,2.3,2.3,82,0.00,OVC,FEW,0.00,WeatherDisplay:10.37,2013-04-15 12:35:00,
2013-04-15 08:40:00,45.6,40.1,30.71,ESE,113,2.3,2.3,81,0.00,OVC,FEW,0.00,WeatherDisplay:10.37,2013-04-15 12:40:00,
2013-04-15 08:47:00,46.1,39.9,30.70,SE,130,3.5,3.5,79,0.00,OVC,FEW,0.00,WeatherDisplay:10.37,2013-04-15 12:47:00,
2013-04-15 08:52:00,46.9,40.1,30.70,ESE,115,4.6,4.6,77,0.00,OVC,FEW,0.00,WeatherDisplay:10.37,2013-04-15 12:52:00,
2013-04-15 08:57:00,47.4,40.2,30.70,SSE,149,5.8,5.8,76,0.00,OVC,FEW,0.00,WeatherDisplay:10.37,2013-04-15 12:57:00,
2013-04-15 09:04:00,47.9,40.4,30.70,SSE,158,4.0,4.0,75,0.00,OVC,FEW,0.00,WeatherDisplay:10.37,2013-04-15 13:04:00,
2013-04-15 09:09:00,48.8,40.9,30.69,ESE,109,3.5,3.5,74,0.00,OVC,FEW,0.00,WeatherDisplay:10.37,2013-04-15 13:09:00,
2013-04-15 09:14:00,49.3,40.7,30.69,SE,136,4.6,4.6,72,0.00,OVC,FEW,0.00,WeatherDisplay:10.37,2013-04-15 13:14:00,
2013-04-15 09:19:00,49.7,41.0,30.69,South,177,3.5,3.5,72,0.00,OVC,FEW,0.00,WeatherDisplay:10.37,2013-04-15 13:19:00,
2013-04-15 09:24:00,50.5,41.4,30.69,East,92,3.5,3.5,71,0.00,OVC,FEW,0.00,WeatherDisplay:10.37,2013-04-15 13:24:00,
2013-04-15 09:42:00,52.2,42.0,30.68,SE,145,4.6,4.6,68,0.00,OVC,FEW,0.00,WeatherDisplay:10.37,2013-04-15 13:42:00,
2013-04-15 09:47:00,52.2,42.0,30.69,ESE,117,3.5,3.5,68,0.00,OVC,FEW,0.00,WeatherDisplay:10.37,2013-04-15 13:47:00,
2013-04-15 09:52:00,52.4,42.1,30.69,ESE,116,4.6,4.6,68,0.00,OVC,FEW,0.00,WeatherDisplay:10.37,2013-04-15 13:52:00,
2013-04-15 09:57:00,52.7,42.4,30.69,ESE,109,3.5,3.5,68,0.00,OVC,FEW,0.00,WeatherDisplay:10.37,2013-04-15 13:57:00,
2013-04-15 10:04:00,53.2,42.5,30.71,SSE,150,2.3,2.3,67,0.00,OVC,FEW,0.00,WeatherDisplay:10.37,2013-04-15 14:04:00,
2013-04-15 10:12:00,53.8,42.7,30.72,West,259,2.3,2.3,66,0.00,OVC,FEW,0.00,WeatherDisplay:10.37,2013-04-15 14:12:00,
2013-04-15 10:17:00,54.0,42.9,30.71,SSW,211,2.3,2.3,66,0.00,OVC,FEW,0.00,WeatherDisplay:10.37,2013-04-15 14:17:00,
2013-04-15 10:22:00,54.2,43.1,30.71,SSW,211,4.0,4.0,66,0.00,OVC,FEW,0.00,WeatherDisplay:10.37,2013-04-15 14:22:00,
2013-04-15 10:27:00,54.3,43.2,30.71,SW,222,4.6,4.6,66,0.00,OVC,FEW,0.00,WeatherDisplay:10.37,2013-04-15 14:27:00,
2013-04-15 10:32:00,54.6,43.9,30.71,SE,139,4.0,4.0,67,0.00,OVC,FEW,0.00,WeatherDisplay:10.37,2013-04-15 14:32:00,
2013-04-15 10:59:00,58.2,46.5,30.70,SSE,165,5.0,5.0,65,0.00,OVC,FEW,0.00,WeatherDisplay:10.37,2013-04-15 14:59:00,
2013-04-15 11:04:00,58.6,45.6,30.70,SSE,153,6.9,6.9,62,0.00,OVC,FEW,0.00,WeatherDisplay:10.37,2013-04-15 15:04:00,
2013-04-15 11:09:00,59.0,46.8,30.70,SE,145,5.8,5.8,64,0.00,OVC,FEW,0.00,WeatherDisplay:10.37,2013-04-15 15:09:00,
2013-04-15 11:14:00,59.8,47.2,30.69,SSE,161,8.1,8.1,63,0.00,OVC,FEW,0.00,WeatherDisplay:10.37,2013-04-15 15:14:00,
2013-04-15 11:19:00,60.4,47.3,30.69,SSE,159,5.0,5.0,62,0.00,OVC,FEW,0.00,WeatherDisplay:10.37,2013-04-15 15:19:00,
2013-04-15 11:27:00,62.0,48.8,30.69,SW,221,9.2,9.2,62,0.00,OVC,FEW,0.00,WeatherDisplay:10.37,2013-04-15 15:27:00,
2013-04-15 11:32:00,62.7,49.1,30.69,WSW,249,10.4,10.4,61,0.00,OVC,FEW,0.00,WeatherDisplay:10.37,2013-04-15 15:32:00,
2013-04-15 11:37:00,62.7,48.6,30.68,SW,232,19.6,19.6,60,0.00,OVC,FEW,0.00,WeatherDisplay:10.37,2013-04-15 15:37:00,
2013-04-15 11:43:00,62.7,48.6,30.69,SSW,211,16.1,16.1,60,0.00,OVC,FEW,0.00,WeatherDisplay:10.37,2013-04-15 15:43:00,
2013-04-15 11:48:00,62.8,48.7,30.68,WSW,239,13.0,13.0,60,0.00,OVC,FEW,0.00,WeatherDisplay:10.37,2013-04-15 15:48:00,
2013-04-15 11:53:00,63.6,49.0,30.68,SSW,211,13.8,13.8,59,0.00,OVC,FEW,0.00,WeatherDisplay:10.37,2013-04-15 15:53:00,
2013-04-15 11:58:00,63.5,48.9,30.68,WSW,245,12.7,12.7,59,0.00,OVC,FEW,0.00,WeatherDisplay:10.37,2013-04-15 15:58:00,
2013-04-15 12:03:00,63.8,49.6,30.68,SSE,167,9.2,9.2,60,0.00,OVC,FEW,0.00,WeatherDisplay:10.37,2013-04-15 16:03:00,
2013-04-15 12:08:00,63.8,50.1,30.68,SW,224,8.1,8.1,61,0.00,OVC,FEW,0.00,WeatherDisplay:10.37,2013-04-15 16:08:00,
2013-04-15 12:14:00,64.5,49.8,30.68,SE,140,11.5,11.5,59,0.00,OVC,FEW,0.00,WeatherDisplay:10.37,2013-04-15 16:14:00,
2013-04-15 12:19:00,64.9,49.8,30.68,South,171,15.0,15.0,58,0.00,OVC,FEW,0.00,WeatherDisplay:10.37,2013-04-15 16:19:00,
2013-04-15 12:24:00,64.8,50.1,30.68,SSE,147,10.4,10.4,59,0.00,OVC,FEW,0.00,WeatherDisplay:10.37,2013-04-15 16:24:00,
2013-04-15 12:29:00,64.9,50.2,30.68,West,266,9.2,9.2,59,0.00,OVC,FEW,0.00,WeatherDisplay:10.37,2013-04-15 16:29:00,
2013-04-15 12:34:00,64.6,49.5,30.68,South,191,16.1,16.1,58,0.00,OVC,FEW,0.00,WeatherDisplay:10.37,2013-04-15 16:34:00,
2013-04-15 12:39:00,64.8,50.1,30.67,SSE,158,11.5,11.5,59,0.00,OVC,FEW,0.00,WeatherDisplay:10.37,2013-04-15 16:39:00,
2013-04-15 12:44:00,64.9,50.2,30.67,South,186,11.5,11.5,59,0.00,OVC,FEW,0.00,WeatherDisplay:10.37,2013-04-15 16:44:00,
2013-04-15 12:49:00,65.3,50.6,30.67,SSW,201,12.7,12.7,59,0.00,OVC,FEW,0.00,WeatherDisplay:10.37,2013-04-15 16:49:00,
2013-04-15 12:54:00,65.7,51.0,30.67,SW,219,9.2,9.2,59,0.00,OVC,FEW,0.00,WeatherDisplay:10.37,2013-04-15 16:54:00,
2013-04-15 12:59:00,66.1,51.4,30.66,SSE,160,11.5,11.5,59,0.00,OVC,FEW,0.00,WeatherDisplay:10.37,2013-04-15 16:59:00,
2013-04-15 13:05:00,66.1,51.4,30.66,SSW,211,16.1,16.1,59,0.00,OVC,FEW,0.00,WeatherDisplay:10.37,2013-04-15 17:05:00,
2013-04-15 13:10:00,66.4,51.6,30.66,South,179,13.8,13.8,59,0.00,OVC,FEW,0.00,WeatherDisplay:10.37,2013-04-15 17:10:00,
2013-04-15 13:15:00,66.5,51.3,30.65,SSW,211,19.6,19.6,58,0.00,OVC,FEW,0.00,WeatherDisplay:10.37,2013-04-15 17:15:00,
2013-04-15 13:21:00,66.7,51.5,30.65,SW,215,12.7,12.7,58,0.00,OVC,FEW,0.00,WeatherDisplay:10.37,2013-04-15 17:21:00,
2013-04-15 13:22:00,66.9,51.6,30.65,South,183,11.5,11.5,58,0.00,OVC,FEW,0.00,WeatherDisplay:10.37,2013-04-15 17:22:00,
2013-04-15 13:25:00,67.1,51.8,30.65,SW,221,10.4,10.4,58,0.00,OVC,FEW,0.00,WeatherDisplay:10.37,2013-04-15 17:25:00,
2013-04-15 13:30:00,67.4,52.1,30.65,SSW,210,13.8,13.8,58,0.00,OVC,FEW,0.00,WeatherDisplay:10.37,2013-04-15 17:30:00,
2013-04-15 13:35:00,67.4,51.6,30.66,SW,225,19.6,19.6,57,0.00,OVC,FEW,0.00,WeatherDisplay:10.37,2013-04-15 17:35:00,
2013-04-15 13:40:00,67.2,51.4,30.66,SW,222,20.7,20.7,57,0.00,OVC,FEW,0.00,WeatherDisplay:10.37,2013-04-15 17:40:00,
2013-04-15 13:45:00,67.9,52.1,30.66,SW,225,18.4,18.4,57,0.00,OVC,FEW,0.00,WeatherDisplay:10.37,2013-04-15 17:45:00,
2013-04-15 13:50:00,67.7,51.9,30.65,SSE,163,17.3,17.3,57,0.00,OVC,FEW,0.00,WeatherDisplay:10.37,2013-04-15 17:50:00,
2013-04-15 13:55:00,67.7,51.4,30.65,SW,231,18.4,18.4,56,0.00,OVC,FEW,0.00,WeatherDisplay:10.37,2013-04-15 17:55:00,
2013-04-15 14:00:00,67.9,52.1,30.65,SSW,193,14.0,14.0,57,0.00,OVC,FEW,0.00,WeatherDisplay:10.37,2013-04-15 18:00:00,
2013-04-15 14:05:00,67.9,52.1,30.65,SSE,152,15.0,15.0,57,0.00,OVC,FEW,0.00,WeatherDisplay:10.37,2013-04-15 18:05:00,
2013-04-15 14:10:00,68.0,52.7,30.65,SE,138,12.0,12.0,58,0.00,OVC,FEW,0.00,WeatherDisplay:10.37,2013-04-15 18:10:00,
2013-04-15 14:16:00,68.0,52.2,30.65,South,169,11.5,11.5,57,0.00,OVC,FEW,0.00,WeatherDisplay:10.37,2013-04-15 18:16:00,
2013-04-15 14:22:00,68.1,52.3,30.65,South,186,15.0,15.0,57,0.00,OVC,FEW,0.00,WeatherDisplay:10.37,2013-04-15 18:22:00,
2013-04-15 14:29:00,68.0,52.6,30.65,SSW,202,9.0,21.0,58,0.00,OVC,FEW,0.00,WeatherDisplay:10.37,2013-04-15 18:29:00,
2013-04-15 14:31:00,68.1,52.3,30.65,SSW,195,13.8,13.8,57,0.00,OVC,FEW,0.00,WeatherDisplay:10.37,2013-04-15 18:31:00,
2013-04-15 14:32:00,68.2,52.9,30.65,South,186,13.0,13.0,58,0.00,OVC,FEW,0.00,WeatherDisplay:10.37,2013-04-15 18:32:00,
2013-04-15 14:37:00,67.9,51.6,30.65,SSW,201,19.6,19.6,56,0.00,OVC,FEW,0.00,WeatherDisplay:10.37,2013-04-15 18:37:00,
2013-04-15 14:42:00,68.1,52.3,30.64,SE,139,11.5,11.5,57,0.00,OVC,FEW,0.00,WeatherDisplay:10.37,2013-04-15 18:42:00,
2013-04-15 14:43:00,68.1,52.3,30.64,WSW,253,15.0,15.0,57,0.00,OVC,FEW,0.00,WeatherDisplay:10.37,2013-04-15 18:43:00,
2013-04-15 14:48:00,67.9,52.1,30.64,SE,131,11.5,11.5,57,0.00,OVC,FEW,0.00,WeatherDisplay:10.37,2013-04-15 18:48:00,
2013-04-15 14:53:00,68.1,51.8,30.64,SSW,212,15.0,15.0,56,0.00,OVC,FEW,0.00,WeatherDisplay:10.37,2013-04-15 18:53:00,
2013-04-15 14:58:00,68.3,52.0,30.64,SSE,156,18.4,18.4,56,0.00,OVC,FEW,0.00,WeatherDisplay:10.37,2013-04-15 18:58:00,
2013-04-15 15:03:00,68.5,52.2,30.63,South,180,10.4,10.4,56,0.00,OVC,FEW,0.00,WeatherDisplay:10.37,2013-04-15 19:03:00,
2013-04-15 15:08:00,68.9,52.6,30.63,SSW,198,9.2,9.2,56,0.00,OVC,FEW,0.00,WeatherDisplay:10.37,2013-04-15 19:08:00,
2013-04-15 15:13:00,68.5,51.7,30.63,South,188,9.2,9.2,55,0.00,OVC,FEW,0.00,WeatherDisplay:10.37,2013-04-15 19:13:00,
2013-04-15 15:18:00,68.2,51.9,30.62,SW,228,11.5,11.5,56,0.00,OVC,FEW,0.00,WeatherDisplay:10.37,2013-04-15 19:18:00,
2013-04-15 15:23:00,68.1,51.3,30.62,SSE,150,23.0,23.0,55,0.00,OVC,FEW,0.00,WeatherDisplay:10.37,2013-04-15 19:23:00,
2013-04-15 15:28:00,68.1,52.3,30.63,SE,143,12.0,12.0,57,0.00,OVC,FEW,0.00,WeatherDisplay:10.37,2013-04-15 19:28:00,
2013-04-15 15:33:00,68.0,51.7,30.62,SSW,200,10.4,10.4,56,0.00,OVC,FEW,0.00,WeatherDisplay:10.37,2013-04-15 19:33:00,
2013-04-15 15:38:00,67.7,51.9,30.63,SSE,168,15.0,15.0,57,0.00,OVC,FEW,0.00,WeatherDisplay:10.37,2013-04-15 19:38:00,
2013-04-15 15:44:00,67.5,51.7,30.62,South,178,10.0,20.0,57,0.00,OVC,FEW,0.00,WeatherDisplay:10.37,2013-04-15 19:44:00,
2013-04-15 15:49:00,67.4,52.1,30.62,West,259,9.2,9.2,58,0.00,OVC,FEW,0.00,WeatherDisplay:10.37,2013-04-15 19:49:00,
2013-04-15 15:54:00,67.4,52.1,30.62,SSW,211,11.5,11.5,58,0.00,OVC,FEW,0.00,WeatherDisplay:10.37,2013-04-15 19:54:00,
2013-04-15 16:00:00,67.4,52.1,30.61,SW,224,15.0,15.0,58,0.00,OVC,FEW,0.00,WeatherDisplay:10.37,2013-04-15 20:00:00,
2013-04-15 16:01:00,67.4,52.1,30.61,West,271,12.7,12.7,58,0.00,OVC,FEW,0.00,WeatherDisplay:10.37,2013-04-15 20:01:00,
2013-04-15 16:02:00,67.4,52.1,30.61,South,177,10.0,10.0,58,0.00,OVC,FEW,0.00,WeatherDisplay:10.37,2013-04-15 20:02:00,
2013-04-15 16:03:00,67.4,52.1,30.61,SW,231,10.4,10.4,58,0.00,OVC,FEW,0.00,WeatherDisplay:10.37,2013-04-15 20:03:00,
2013-04-15 16:04:00,67.5,52.2,30.61,SSE,148,17.3,17.3,58,0.00,OVC,FEW,0.00,WeatherDisplay:10.37,2013-04-15 20:04:00,
2013-04-15 16:05:00,67.5,52.2,30.61,SW,223,13.8,13.8,58,0.00,OVC,FEW,0.00,WeatherDisplay:10.37,2013-04-15 20:05:00,
2013-04-15 16:08:00,67.6,52.3,30.61,SSW,203,13.8,13.8,58,0.00,OVC,FEW,0.00,WeatherDisplay:10.37,2013-04-15 20:08:00,
2013-04-15 16:13:00,67.5,52.2,30.61,SSW,210,19.6,19.6,58,0.00,OVC,FEW,0.00,WeatherDisplay:10.37,2013-04-15 20:13:00,
2013-04-15 16:18:00,67.2,51.9,30.61,SE,140,18.4,18.4,58,0.00,OVC,FEW,0.00,WeatherDisplay:10.37,2013-04-15 20:18:00,
2013-04-15 16:23:00,67.3,52.0,30.61,SSW,207,18.4,18.4,58,0.00,OVC,FEW,0.00,WeatherDisplay:10.37,2013-04-15 20:23:00,
2013-04-15 16:28:00,67.3,52.0,30.61,SW,219,16.1,16.1,58,0.00,OVC,FEW,0.00,WeatherDisplay:10.37,2013-04-15 20:28:00,
2013-04-15 16:33:00,67.2,51.9,30.61,WSW,253,16.1,16.1,58,0.00,OVC,FEW,0.00,WeatherDisplay:10.37,2013-04-15 20:33:00,
2013-04-15 16:38:00,67.0,51.7,30.61,SSW,204,21.0,21.0,58,0.00,OVC,FEW,0.00,WeatherDisplay:10.37,2013-04-15 20:38:00,
2013-04-15 16:43:00,66.9,52.1,30.61,SW,222,19.6,19.6,59,0.00,OVC,FEW,0.00,WeatherDisplay:10.37,2013-04-15 20:43:00,
2013-04-15 16:48:00,66.8,52.0,30.61,SW,214,19.6,19.6,59,0.00,OVC,FEW,0.00,WeatherDisplay:10.37,2013-04-15 20:48:00,
2013-04-15 16:53:00,66.8,52.0,30.61,South,169,12.7,12.7,59,0.00,OVC,FEW,0.00,WeatherDisplay:10.37,2013-04-15 20:53:00,
2013-04-15 16:58:00,66.9,52.1,30.61,SW,214,19.6,19.6,59,0.00,OVC,FEW,0.00,WeatherDisplay:10.37,2013-04-15 20:58:00,
2013-04-15 17:03:00,66.9,52.1,30.61,SW,218,15.0,15.0,59,0.00,OVC,FEW,0.00,WeatherDisplay:10.37,2013-04-15 21:03:00,
2013-04-15 17:08:00,66.8,52.5,30.61,SW,218,14.0,14.0,60,0.00,OVC,FEW,0.00,WeatherDisplay:10.37,2013-04-15 21:08:00,
2013-04-15 17:13:00,66.7,52.4,30.61,SW,214,16.1,16.1,60,0.00,OVC,FEW,0.00,WeatherDisplay:10.37,2013-04-15 21:13:00,
2013-04-15 17:18:00,66.6,52.3,30.61,SW,215,19.6,19.6,60,0.00,OVC,FEW,0.00,WeatherDisplay:10.37,2013-04-15 21:18:00,
2013-04-15 17:23:00,66.5,52.2,30.61,SW,214,12.7,12.7,60,0.00,OVC,FEW,0.00,WeatherDisplay:10.37,2013-04-15 21:23:00,
2013-04-15 17:28:00,66.5,52.6,30.61,SSE,151,8.1,8.1,61,0.00,OVC,FEW,0.00,WeatherDisplay:10.37,2013-04-15 21:28:00,
2013-04-15 17:33:00,66.6,52.3,30.60,SE,146,10.4,10.4,60,0.00,OVC,FEW,0.00,WeatherDisplay:10.37,2013-04-15 21:33:00,
2013-04-15 17:38:00,66.6,52.7,30.61,South,179,8.1,8.1,61,0.00,OVC,FEW,0.00,WeatherDisplay:10.37,2013-04-15 21:38:00,
2013-04-15 17:43:00,66.5,52.2,30.61,SW,235,12.7,12.7,60,0.00,OVC,FEW,0.00,WeatherDisplay:10.37,2013-04-15 21:43:00,
2013-04-15 17:48:00,66.4,52.5,30.61,South,169,12.7,12.7,61,0.00,OVC,FEW,0.00,WeatherDisplay:10.37,2013-04-15 21:48:00,
2013-04-15 17:53:00,66.4,52.5,30.61,SSE,157,6.9,6.9,61,0.00,OVC,FEW,0.00,WeatherDisplay:10.37,2013-04-15 21:53:00,
2013-04-15 17:58:00,66.4,52.5,30.61,SW,224,11.5,11.5,61,0.00,OVC,FEW,0.00,WeatherDisplay:10.37,2013-04-15 21:58:00,
2013-04-15 18:03:00,66.4,52.5,30.61,SW,225,12.0,12.0,61,0.00,OVC,FEW,0.00,WeatherDisplay:10.37,2013-04-15 22:03:00,
2013-04-15 18:08:00,66.3,52.0,30.61,SSW,210,16.1,16.1,60,0.00,OVC,FEW,0.00,WeatherDisplay:10.37,2013-04-15 22:08:00,
2013-04-15 18:13:00,66.2,52.3,30.61,WSW,238,15.0,15.0,61,0.00,OVC,FEW,0.00,WeatherDisplay:10.37,2013-04-15 22:13:00,
2013-04-15 18:18:00,66.0,52.2,30.61,SW,218,13.8,13.8,61,0.00,OVC,FEW,0.00,WeatherDisplay:10.37,2013-04-15 22:18:00,
2013-04-15 18:23:00,65.8,52.0,30.62,SW,214,13.8,13.8,61,0.00,OVC,FEW,0.00,WeatherDisplay:10.37,2013-04-15 22:23:00,
2013-04-15 18:28:00,65.8,52.0,30.62,SW,217,11.5,11.5,61,0.00,OVC,FEW,0.00,WeatherDisplay:10.37,2013-04-15 22:28:00,
2013-04-15 18:33:00,65.8,52.0,30.62,SSW,210,11.5,11.5,61,0.00,OVC,FEW,0.00,WeatherDisplay:10.37,2013-04-15 22:33:00,
2013-04-15 18:38:00,65.7,52.3,30.62,SW,228,9.2,9.2,62,0.00,OVC,FEW,0.00,WeatherDisplay:10.37,2013-04-15 22:38:00,
2013-04-15 18:43:00,65.7,52.3,30.62,SW,214,9.2,9.2,62,0.00,OVC,FEW,0.00,WeatherDisplay:10.37,2013-04-15 22:43:00,
2013-04-15 18:48:00,65.6,52.2,30.63,WSW,242,9.2,9.2,62,0.00,OVC,FEW,0.00,WeatherDisplay:10.37,2013-04-15 22:48:00,
2013-04-15 18:53:00,65.6,52.2,30.62,South,176,3.5,3.5,62,0.00,OVC,FEW,0.00,WeatherDisplay:10.37,2013-04-15 22:53:00,
2013-04-15 18:58:00,65.5,52.1,30.62,SSE,151,5.8,5.8,62,0.00,OVC,FEW,0.00,WeatherDisplay:10.37,2013-04-15 22:58:00,
2013-04-15 19:03:00,65.4,52.5,30.63,South,183,5.8,5.8,63,0.00,OVC,FEW,0.00,WeatherDisplay:10.37,2013-04-15 23:03:00,
2013-04-15 19:08:00,65.3,52.4,30.63,SW,229,6.9,6.9,63,0.00,OVC,FEW,0.00,WeatherDisplay:10.37,2013-04-15 23:08:00,
2013-04-15 19:13:00,65.3,52.4,30.63,SSW,194,11.5,11.5,63,0.00,OVC,FEW,0.00,WeatherDisplay:10.37,2013-04-15 23:13:00,
2013-04-15 19:18:00,65.2,52.3,30.63,SE,127,8.1,8.1,63,0.00,OVC,FEW,0.00,WeatherDisplay:10.37,2013-04-15 23:18:00,
2013-04-15 19:23:00,65.1,52.2,30.62,SE,143,3.5,3.5,63,0.00,OVC,FEW,0.00,WeatherDisplay:10.37,2013-04-15 23:23:00,
2013-04-15 19:28:00,65.0,52.5,30.62,South,174,5.8,5.8,64,0.00,OVC,FEW,0.00,WeatherDisplay:10.37,2013-04-15 23:28:00,
2013-04-15 19:33:00,64.8,52.3,30.62,SE,146,3.5,3.5,64,0.00,OVC,FEW,0.00,WeatherDisplay:10.37,2013-04-15 23:33:00,
2013-04-15 19:38:00,64.7,52.2,30.63,SSE,155,4.0,4.0,64,0.00,OVC,FEW,0.00,WeatherDisplay:10.37,2013-04-15 23:38:00,
2013-04-15 19:43:00,64.6,52.1,30.62,SSE,153,4.6,4.6,64,0.00,OVC,FEW,0.00,WeatherDisplay:10.37,2013-04-15 23:43:00,
2013-04-15 19:48:00,64.4,52.4,30.62,SSE,166,6.0,6.0,65,0.00,OVC,FEW,0.00,WeatherDisplay:10.37,2013-04-15 23:48:00,
2013-04-15 19:53:00,64.3,52.3,30.62,SSE,158,3.5,3.5,65,0.00,OVC,FEW,0.00,WeatherDisplay:10.37,2013-04-15 23:53:00,
2013-04-15 19:58:00,64.2,52.2,30.62,SSE,158,3.5,3.5,65,0.00,OVC,FEW,0.00,WeatherDisplay:10.37,2013-04-15 23:58:00,
2013-04-15 20:03:00,64.2,52.2,30.63,South,189,5.8,5.8,65,0.00,OVC,FEW,0.00,WeatherDisplay:10.37,2013-04-16 00:03:00,
2013-04-15 20:08:00,64.2,52.6,30.62,SSE,153,3.5,3.5,66,0.00,OVC,FEW,0.00,WeatherDisplay:10.37,2013-04-16 00:08:00,
2013-04-15 20:13:00,64.1,52.5,30.63,SE,145,3.5,3.5,66,0.00,OVC,FEW,0.00,WeatherDisplay:10.37,2013-04-16 00:13:00,
2013-04-15 20:18:00,64.1,52.5,30.63,SSE,165,3.5,3.5,66,0.00,OVC,FEW,0.00,WeatherDisplay:10.37,2013-04-16 00:18:00,
2013-04-15 20:23:00,63.9,52.3,30.63,SE,139,6.9,6.9,66,0.00,OVC,FEW,0.00,WeatherDisplay:10.37,2013-04-16 00:23:00,
2013-04-15 20:28:00,63.9,52.3,30.63,SSW,211,3.5,3.5,66,0.00,OVC,FEW,0.00,WeatherDisplay:10.37,2013-04-16 00:28:00,
2013-04-15 20:33:00,63.7,52.5,30.63,SSW,205,3.5,3.5,67,0.00,OVC,FEW,0.00,WeatherDisplay:10.37,2013-04-16 00:33:00,
2013-04-15 20:38:00,63.7,52.5,30.63,SSW,194,3.5,3.5,67,0.00,OVC,FEW,0.00,WeatherDisplay:10.37,2013-04-16 00:38:00,
2013-04-15 20:43:00,63.6,52.4,30.63,SSE,150,5.8,5.8,67,0.00,OVC,FEW,0.00,WeatherDisplay:10.37,2013-04-16 00:43:00,
2013-04-15 20:48:00,63.6,52.4,30.63,SE,137,5.8,5.8,67,0.00,OVC,FEW,0.00,WeatherDisplay:10.37,2013-04-16 00:48:00,
2013-04-15 20:53:00,63.6,52.8,30.63,SSE,162,4.6,4.6,68,0.00,OVC,FEW,0.00,WeatherDisplay:10.37,2013-04-16 00:53:00,
2013-04-15 20:58:00,63.4,52.7,30.63,South,171,4.6,4.6,68,0.00,OVC,FEW,0.00,WeatherDisplay:10.37,2013-04-16 00:58:00,
2013-04-15 21:03:00,63.4,52.7,30.63,SE,139,3.5,3.5,68,0.00,OVC,FEW,0.00,WeatherDisplay:10.37,2013-04-16 01:03:00,
2013-04-15 21:08:00,63.3,52.6,30.64,WSW,240,4.0,4.0,68,0.00,OVC,FEW,0.00,WeatherDisplay:10.37,2013-04-16 01:08:00,
2013-04-15 21:13:00,63.2,52.5,30.63,SE,142,4.6,4.6,68,0.00,OVC,FEW,0.00,WeatherDisplay:10.37,2013-04-16 01:13:00,
2013-04-15 21:18:00,63.2,52.9,30.64,SE,146,4.6,4.6,69,0.00,OVC,FEW,0.00,WeatherDisplay:10.37,2013-04-16 01:18:00,
2013-04-15 21:23:00,63.2,52.9,30.64,South,170,9.2,9.2,69,0.00,OVC,FEW,0.00,WeatherDisplay:10.37,2013-04-16 01:23:00,
2013-04-15 21:28:00,63.2,52.9,30.64,SSE,156,3.5,3.5,69,0.00,OVC,FEW,0.00,WeatherDisplay:10.37,2013-04-16 01:28:00,
2013-04-15 21:33:00,63.2,52.9,30.64,SSE,157,6.9,6.9,69,0.00,OVC,FEW,0.00,WeatherDisplay:10.37,2013-04-16 01:33:00,
2013-04-15 21:38:00,63.2,52.9,30.64,SSE,162,6.9,6.9,69,0.00,OVC,FEW,0.00,WeatherDisplay:10.37,2013-04-16 01:38:00,
2013-04-15 21:43:00,63.2,52.9,30.64,SSE,165,4.6,4.6,69,0.00,OVC,FEW,0.00,WeatherDisplay:10.37,2013-04-16 01:43:00,
2013-04-15 21:48:00,63.2,52.9,30.64,SSE,163,4.6,4.6,69,0.00,OVC,FEW,0.00,WeatherDisplay:10.37,2013-04-16 01:48:00,
2013-04-15 21:53:00,63.0,53.4,30.65,SSW,195,6.9,6.9,71,0.00,OVC,FEW,0.00,WeatherDisplay:10.37,2013-04-16 01:53:00,
2013-04-15 21:58:00,62.4,53.6,30.65,SSE,162,8.1,8.1,73,0.00,OVC,FEW,0.00,WeatherDisplay:10.37,2013-04-16 01:58:00,
2013-04-15 22:03:00,61.8,53.8,30.66,SW,220,13.8,13.8,75,0.00,OVC,FEW,0.00,WeatherDisplay:10.37,2013-04-16 02:03:00,
2013-04-15 22:08:00,61.4,54.1,30.65,WSW,239,10.4,10.4,77,0.00,OVC,FEW,0.00,WeatherDisplay:10.37,2013-04-16 02:08:00,
2013-04-15 22:13:00,61.0,54.1,30.65,SW,225,3.5,3.5,78,0.01,RA,FEW,0.01,WeatherDisplay:10.37,2013-04-16 02:13:00,
2013-04-15 22:18:00,60.6,54.4,30.66,SW,229,6.9,6.9,80,0.01,RA,FEW,0.01,WeatherDisplay:10.37,2013-04-16 02:18:00,
2013-04-15 22:23:00,60.2,54.3,30.66,SSE,147,2.3,2.3,81,0.02,RA,FEW,0.02,WeatherDisplay:10.37,2013-04-16 02:23:00,
2013-04-15 22:28:00,59.9,54.4,30.65,SE,142,3.5,3.5,82,0.02,RA,FEW,0.02,WeatherDisplay:10.37,2013-04-16 02:28:00,
2013-04-15 22:33:00,59.6,54.4,30.65,South,181,1.2,1.2,83,0.02,OVC,FEW,0.02,WeatherDisplay:10.37,2013-04-16 02:33:00,
2013-04-15 22:38:00,59.5,54.7,30.65,SSW,208,2.3,2.3,84,0.02,OVC,FEW,0.02,WeatherDisplay:10.37,2013-04-16 02:38:00,
2013-04-15 22:43:00,59.4,54.6,30.65,SSE,151,2.3,2.3,84,0.02,OVC,FEW,0.02,WeatherDisplay:10.37,2013-04-16 02:43:00,
2013-04-15 22:48:00,59.5,55.0,30.65,SSE,153,2.3,2.3,85,0.02,OVC,FEW,0.02,WeatherDisplay:10.37,2013-04-16 02:48:00,
2013-04-15 22:53:00,59.5,54.7,30.65,SE,138,1.2,1.2,84,0.02,OVC,FEW,0.02,WeatherDisplay:10.37,2013-04-16 02:53:00,
2013-04-15 22:58:00,59.7,54.9,30.65,SSW,198,3.5,3.5,84,0.02,OVC,FEW,0.02,WeatherDisplay:10.37,2013-04-16 02:58:00,
2013-04-15 23:03:00,59.9,54.7,30.65,SE,142,2.3,2.3,83,0.02,OVC,FEW,0.02,WeatherDisplay:10.37,2013-04-16 03:03:00,
2013-04-15 23:08:00,60.1,54.9,30.65,South,187,3.5,3.5,83,0.02,OVC,FEW,0.02,WeatherDisplay:10.37,2013-04-16 03:08:00,
2013-04-15 23:13:00,60.2,54.7,30.64,SW,219,4.6,4.6,82,0.01,OVC,FEW,0.02,WeatherDisplay:10.37,2013-04-16 03:13:00,
2013-04-15 23:18:00,60.3,54.4,30.64,SE,143,3.5,3.5,81,0.01,OVC,FEW,0.02,WeatherDisplay:10.37,2013-04-16 03:18:00,
2013-04-15 23:23:00,60.4,54.5,30.63,SE,137,3.5,3.5,81,0.00,OVC,FEW,0.02,WeatherDisplay:10.37,2013-04-16 03:23:00,
2013-04-15 23:28:00,60.4,54.5,30.63,SSE,158,3.5,3.5,81,0.00,OVC,FEW,0.02,WeatherDisplay:10.37,2013-04-16 03:28:00,
2013-04-15 23:33:00,60.4,54.2,30.63,SSE,161,2.3,2.3,80,0.00,OVC,FEW,0.02,WeatherDisplay:10.37,2013-04-16 03:33:00,
2013-04-15 23:38:00,60.5,54.3,30.62,SSE,152,3.5,3.5,80,0.00,OVC,FEW,0.02,WeatherDisplay:10.37,2013-04-16 03:38:00,
2013-04-15 23:43:00,60.6,54.4,30.62,SSE,153,5.0,5.0,80,0.00,OVC,FEW,0.02,WeatherDisplay:10.37,2013-04-16 03:43:00,
2013-04-15 23:48:00,60.6,54.0,30.62,SSE,160,2.3,2.3,79,0.00,OVC,FEW,0.02,WeatherDisplay:10.37,2013-04-16 03:48:00,
2013-04-15 23:53:00,60.7,54.1,30.63,SSE,155,3.5,3.5,79,0.00,OVC,FEW,0.02,WeatherDisplay:10.37,2013-04-16 03:53:00,
2013-04-15 23:58:00,60.8,53.9,30.62,SSW,205,3.5,3.5,78,0.00,OVC,FEW,0.02,WeatherDisplay:10.37,2013-04-16 03:58:00,